Location: Aulus
(42.7909°N, 1.3399°E)
Time: 01:06:22
(UTC+00:00)

SAR-Lupe-2 - Pass Details

Date: 19 May 2025
Orbit: 478 x 487 km, 98.1° (Epoch: 16 May)

Event Time Altitude Azimuth Distance (km) Brightness Sun altitude
Exits shadow 20:57:49 30° 163° (SSE) 875 4.3 -15.6°
Maximum altitude 20:59:27 86° 77° (ENE) 487 3.4 -15.8°
Drops below altitude 10° 21:03:02 10° 348° (NNW) 1,664 7.2 -16.3°
Sets 21:05:06 0° 348° (NNW) 2,549 8.3 -16.5°
